Huron, SD

6:23 AM CST on February 09, 2016 (GMT -0600)
Huron Regional

Weather History for KHON - April, 2013

Change the Weather History Date:

Wednesday, April 3, 2013

  Actual Average Record
Temperature  
Mean Temperature 50 °F 41 °F  
Max Temperature 71 °F 53 °F 81 °F (1910)
Min Temperature 28 °F 29 °F -2 °F (1975)
Degree Days  
Heating Degree Days 15 24  
Month to date heating degree days 85 73  
Since 1 July heating degree days 7149 6892  
Cooling Degree Days 0 0  
Month to date cooling degree days 0 0  
Year to date cooling degree days 0 0  
Moisture  
Dew Point 27 °F    
Average Humidity 54    
Maximum Humidity 85    
Minimum Humidity 22    
Precipitation  
Precipitation 0.00 in 0.06 in 1.80 in (1968)
Month to date precipitation 0.00 0.19  
Year to date precipitation 2.16 2.75  
Snow  
Snow 0.00 in 0.20 in 7.50 in (1937)
Month to date snowfall 0.0 0.6  
Since 1 July snowfall 40.4 40.5  
Snow Depth 0.00 in    
Sea Level Pressure  
Sea Level Pressure 30.10 in    
Wind  
Wind Speed 14 mph (South)    
Max Wind Speed 24 mph    
Max Gust Speed 32 mph    
Visibility 10 miles    
Events      
T = Trace of Precipitation, MM = Missing Value Source: NWS Daily Summary

Daily Weather History Graph

Daily Weather History Graph

Search for Another Location

Airport or City:

Trip Planner

Search our weather history database for the weather conditions in past years. The results will help you decide how hot, cold, wet, or windy it might be!

Date:

Astronomy

Apr. 03, 2013 Rise Set
Actual Time 7:09 AM CDT 8:03 PM CDT
Civil Twilight 6:40 AM CDT 8:32 PM CDT
Nautical Twilight 6:05 AM CDT 9:07 PM CDT
Astronomical Twilight 5:28 AM CDT 9:44 PM CDT
Moon 3:06 AM CDT (4/3) 1:02 PM CDT (4/3)
Length of Visible Light 13h 52m
Length of Day
12h 53m
Last Quarter, 44% of the Moon is Illuminated
Apr 3
Last Quarter
Apr 10
New
Apr 18
First Quarter
Apr 25
Full
May 2
Last Quarter

Hourly Weather History & Observations

Time (CDT) Temp. Windchill Dew Point Humidity Pressure Visibility Wind Dir Wind Speed Gust Speed Precip Events Conditions
12:55 AM 28.9 °F 19.8 °F 24.1 °F 82% 30.29 in 10.0 mi SE 10.4 mph - N/A   Clear
1:55 AM 28.9 °F 19.2 °F 24.1 °F 82% 30.29 in 10.0 mi SE 11.5 mph - N/A   Clear
2:55 AM 28.0 °F 18.6 °F 23.0 °F 81% 30.27 in 10.0 mi SE 10.4 mph - N/A   Clear
3:55 AM 28.9 °F 18.6 °F 23.0 °F 78% 30.25 in 10.0 mi SE 12.7 mph 19.6 mph N/A   Clear
4:55 AM 28.9 °F 19.2 °F 23.0 °F 78% 30.24 in 10.0 mi SSE 11.5 mph - N/A   Clear
5:55 AM 28.9 °F 18.6 °F 24.1 °F 82% 30.22 in 10.0 mi SSE 12.7 mph 19.6 mph N/A   Clear
6:55 AM 28.9 °F 19.2 °F 24.1 °F 82% 30.22 in 10.0 mi SSE 11.5 mph 20.7 mph N/A   Clear
7:55 AM 30.0 °F 20.0 °F 24.1 °F 79% 30.22 in 10.0 mi SSE 12.7 mph 19.6 mph N/A   Clear
8:55 AM 33.1 °F 23.0 °F 25.0 °F 72% 30.20 in 10.0 mi SSE 15.0 mph 20.7 mph N/A   Clear
9:55 AM 37.0 °F 28.5 °F 26.1 °F 65% 30.18 in 10.0 mi South 13.8 mph - N/A   Clear
10:55 AM 42.1 °F 35.7 °F 28.0 °F 58% 30.16 in 10.0 mi South 11.5 mph 16.1 mph N/A   Clear
11:55 AM 48.0 °F - 28.9 °F 48% 30.13 in 10.0 mi South 8.1 mph - N/A   Clear
12:55 PM 55.9 °F - 33.1 °F 42% 30.09 in 10.0 mi South 12.7 mph 21.9 mph N/A   Clear
1:55 PM 63.0 °F - 35.1 °F 35% 30.04 in 10.0 mi South 13.8 mph 21.9 mph N/A   Clear
2:55 PM 68.0 °F - 30.9 °F 25% 29.99 in 10.0 mi SSW 17.3 mph 28.8 mph N/A   Clear
3:55 PM 70.0 °F - 28.0 °F 21% 29.98 in 10.0 mi SW 21.9 mph 29.9 mph N/A   Clear
4:55 PM 70.0 °F - 28.0 °F 21% 29.97 in 10.0 mi SSW 20.7 mph 31.1 mph N/A   Clear
5:55 PM 68.0 °F - 28.0 °F 22% 29.96 in 10.0 mi SSW 16.1 mph 27.6 mph N/A   Clear
6:55 PM 66.0 °F - 28.9 °F 25% 29.96 in 10.0 mi SSW 16.1 mph 24.2 mph N/A   Clear
7:55 PM 61.0 °F - 30.0 °F 31% 29.94 in 10.0 mi South 13.8 mph 21.9 mph N/A   Clear
8:55 PM 57.9 °F - 28.0 °F 32% 29.95 in 10.0 mi South 13.8 mph 21.9 mph N/A   Partly Cloudy
9:55 PM 54.0 °F - 28.0 °F 37% 29.96 in 10.0 mi South 16.1 mph 23.0 mph N/A   Clear
10:55 PM 52.0 °F - 28.9 °F 41% 29.98 in 10.0 mi South 13.8 mph - N/A   Scattered Clouds
11:28 PM 51.8 °F - 28.4 °F 41% 30.01 in 10.0 mi SW 9.2 mph - N/A   Partly Cloudy
11:55 PM 48.9 °F - 30.0 °F 48% 30.03 in 10.0 mi West 11.5 mph 17.3 mph N/A   Clear